Regional Weather Roundup
Issued by NWS

Home | Current Version | Previous Version | Text Only | Print | Product List | Glossary Off
Versions: 1 2 3 4 5 6 7 8 9 10 11 12 13 14 15 16 17 18 19 20 21 22 23 24 25 26 27 28 29 30 31 32 33 34 35 36 37 38 39 40 41 42 43 44 45 46 47 48 49 50

000
ASUS43 KLMK 312310
RWRKY
KENTUCKY REGIONAL WEATHER ROUNDUP
NATIONAL WEATHER SERVICE LOUISVILLE KY
700 PM EDT THU JUL 31 2014

NOTE "FAIR" INDICATES FEW OR NO CLOUDS BELOW 12,000 FEET
WITH NO SIGNIFICANT WEATHER AND/OR OBSTRUCTIONS TO VISIBILITY.

KYZ001>023-026-027-061>063-070>075-010000-
WESTERN AND SOUTH CENTRAL KENTUCKY

CITY           SKY/WX    TMP DP  RH WIND       PRES   REMARKS
PADUCAH        MOSUNNY   81  64  56 W6        30.06S
HENDERSON      MOSUNNY  N/A N/A N/A MISG        N/A
OWENSBORO      MOSUNNY   83  60  45 SW3       30.06S
HOPKINSVILLE   PTSUNNY   82  57  42 SW6       30.05F
BOWLING GREEN  MOSUNNY   85  52  32 CALM      30.06S
GLASGOW        PTSUNNY   82  53  36 E3        30.07S
$$

KYZ024-025-028>034-038-045-046-053-010000-
NORTH CENTRAL KENTUCKY

CITY           SKY/WX    TMP DP  RH WIND       PRES   REMARKS
LOUISVILLE/SDF MOSUNNY   83  54  36 S7        30.05F
LOUISVILLE/LOU SUNNY     83  52  34 S6        30.06S
FORT KNOX      MOSUNNY   79  58  48 NW2       30.06F
$$

KYZ035>037-039>044-047>052-055>060-089>105-010000-
NORTHEAST KENTUCKY

CITY           SKY/WX    TMP DP  RH WIND       PRES   REMARKS
LEXINGTON      SUNNY     80  59  48 SW7       30.09S
COVINGTON      PTSUNNY   77  60  55 SW3       30.08S
FRANKFORT      SUNNY     81  54  39 W5        30.07S
$$

KYZ054-064>069-076>088-106>120-010000-
SOUTHEAST KENTUCKY

CITY           SKY/WX    TMP DP  RH WIND       PRES   REMARKS
JACKSON        MOSUNNY   78  57  48 CALM      30.11S
LONDON         MOSUNNY   81  57  43 N6        30.10F
SOMERSET       SUNNY     79  54  41 E3        30.10S
MIDDLESBORO    MOSUNNY   79  64  59 W5        30.09S
MONTICELLO     PTCLDY    82  62  50 CALM      30.10F
$$



USA.gov is the U.S. government's official web portal to all federal, state and local government web resources and services.